Weather in Dubovaya Roshcha

Russia / Oryol Oblast     53°09′37″N   36°03′41″E
temp.,
°C
wind,
m/s
gust,
m/s
humid.,
%
clouds,
%
prec.,
mm/h
press.,
hPa
HPBL,
m
27 november, sat
sat2700:00+1s6148896 0.0 1012467
03:000s61392100 0.0 1011373
06:00−1sse61590100 0.0 1009446
09:00+1sse71889100 0.0 1007641
12:00+3sse91786100 0.0 1004804
15:00+2sse91796100 0.3 1002810
18:00+2s81695100 1.1 1001664
21:00+3s71598100 1.3 1001523
28 november, sun
sun2800:00+5s6139593 0.0 1001401
03:00+6sw71190100 0.1 1002575
06:00+5sw598113 0.0 1003417
09:00+2sw38955 0.0 1006228
12:00+4wsw47795 0.0 1007360
15:00+4ssw357894 0.0 1008222
18:00+2s228599 0.0 100826
21:00+2se3792100 0.0 1008124
29 november, mon
mon2900:00+3se51297100 0.0 1008284
03:00+3se51196100 0.0 1006250
06:00+4se41097100 0.0 1003215
09:00+4e4999100 0.9 1000214
12:00+5se4998100 0.3 997308
15:00+6s41099100 0.5 995374
18:00+7s51296100 0.0 993577
21:00+7se5997100 0.4 988284
30 november, tue
tue3000:00+6ese3799100 0.1 983203
03:00+7sw41099100 3.1 980316
06:00+2wsw111896100 4.2 983833
09:00+1wsw121872100 4.4 9871232
12:00+2sw111873100 0.1 9881497
15:00+1sw111779100 0.2 9881590
18:00+1sw111776100 0.1 9891252
21:00−1sw9158493 0.3 9901041
1 december, wed
wed100:00−1wsw9148498 0.1 9901069
03:00−2wsw81391100 0.4 992935
06:00−2w81290100 0.6 994954
09:00−3w71188100 0.8 996899
12:00−3wnw7117298 0.1 998856
15:00−3w611748 0.1 1000839
18:00−3wsw498312 0.0 1002497
21:00−3sw498590 0.0 1003411